Miscellaneous Local Product
Issued by NWS Hastings, NE

Home | Current Version | Previous Version | Graphics & Text | Print | Product List | Glossary On
Versions: 1 2 3 4 5 6 7 8 9 10 11 12 13 14 15 16 17 18 19 20 21 22 23 24 25 26 27 28 29 30 31 32 33 34 35 36 37 38 39 40 41 42 43 44 45 46 47 48 49 50
823
AXUS43 KGID 170302
MISGRI

GID CWA HOURLY WEATHER ROUNDUP
NATIONAL WEATHER SERVICE HASTINGS NE
900 PM CST TUE JAN 16 2018

NOTE: "FAIR" INDICATES FEW OR NO CLOUDS BELOW 12,000 FEET WITH NO
SIGNIFICANT WEATHER AND/OR OBSTRUCTIONS TO VISIBILITY.

...SOUTH CENTRAL NEBRASKA...

CITY           SKY/WX    TMP DP  RH WIND       PRES   REMARKS
GRAND ISLAND   CLOUDY     3   0  87 S7        30.58F WCI  -9
KEARNEY        CLOUDY     1  -3  83 S7        30.56F WCI -12
HASTINGS       CLOUDY     6  -1  73 S6        30.58F WCI  -4
ORD            CLEAR      4  -2  76 CALM      30.52F
YORK           CLOUDY     5   1  85 S6        30.61F WCI  -6
AURORA         CLOUDY     5   0  78 S5        30.59F WCI  -4
LEXINGTON      CLEAR      9   1  71 S7        30.51F WCI  -3
HOLDREGE       CLOUDY     8   1  75 S6        30.54F WCI  -3
HEBRON         CLOUDY    -1  -4  85 CALM      30.66F

...NEBRASKA PANHANDLE...

CITY           SKY/WX    TMP DP  RH WIND       PRES   REMARKS
CHADRON        CLEAR     12   4  70 CALM      30.28F
ALLIANCE       CLEAR     10   3  73 S10       30.28F WCI  -4
SCOTTSBLUFF    CLEAR      7   2  80 E5        30.28F WCI  -2
SIDNEY         CLEAR     12   2  64 SW10      30.31F WCI  -1

...WESTERN AND NORTH CENTRAL NEBRASKA...

CITY           SKY/WX    TMP DP  RH WIND       PRES   REMARKS
VALENTINE      CLEAR     11   0  61 SW5       30.37F WCI   3
AINSWORTH      CLEAR     11   2  68 SW14      30.39F WCI  -5
ONEILL         CLEAR      6   0  76 S8        30.50S WCI  -7
BROKEN BOW     CLEAR      2  -5  72 S5        30.47F WCI  -8
IMPERIAL       CLEAR      7  -1  70 S8        30.40F WCI  -6
NORTH PLATTE   CLEAR     11  -1  58 S8        30.45F WCI  -1
MCCOOK         CLEAR      7   0  73 S6        30.49F WCI  -3

...EASTERN NEBRASKA...

CITY           SKY/WX    TMP DP  RH WIND       PRES   REMARKS
NORFOLK        CLOUDY     5   0  79 S8        30.56F WCI  -8
SO SIOUX CITY  CLOUDY    -1  -5  82 S5        30.64F WCI -11
TEKAMAH        CLOUDY    -2  -8  76 SW3       30.67F
COLUMBUS       CLOUDY     3  -3  76 S5        30.63F WCI  -6
ALBION         CLOUDY     4  -1  79 CALM      30.56F
OMAHA EPPLEY   CLOUDY     4   0  83 SE3       30.68F
OFFUTT AFB     CLEAR     -2  -6  83 S3        30.67F
MILLARD        CLOUDY     6   3  86 CALM      30.67F
LINCOLN        CLOUDY     5  -1  76 CALM      30.68F
NEBRASKA CITY  CLOUDY     5   2  89 SW3       30.67F
BEATRICE       CLOUDY     4   1  84 CALM      30.67F
FALLS CITY     CLOUDY     3  -2  79 SW5       30.70F WCI  -6

...NORTHERN KANSAS...

CITY           SKY/WX    TMP DP  RH WIND       PRES   REMARKS
GOODLAND       CLEAR     11  -2  56 S14       30.41F WCI  -5
HILL CITY      CLOUDY     7  -1  70 SW3       30.56F
NORTON         CLEAR      5  -4  66 CALM      30.53S
PHILLIPSBURG   CLEAR      9   0  66 CALM      30.60S
SMITH CENTER     N/A      3   3 100 SE3       30.63S
BELOIT         CLEAR      7   1  78 CALM      30.67S
HAYS           CLOUDY     4  -1  80 S5        30.61F WCI  -5
RUSSELL        CLOUDY     2  -1  88 S6        30.61F WCI  -9
CONCORDIA      CLOUDY     8   2  76 CALM      30.65F
SALINA         CLOUDY     7   2  80 SE5       30.69F WCI  -2
TOPEKA         CLOUDY     4   0  83 CALM      30.72F



USA.gov is the U.S. government's official web portal to all federal, state and local government web resources and services.